IRS-P5 (CARTOSAT-1)

Last updated on Mon Sep 07 2026 00:02:44 GMT+0000 (Coordinated Universal Time)

1 28649U 05017A 26249.61007129 .00000827 00000+0 88454-4 0 9990 2 28649 97.5298 268.9841 0002298 113.5367 246.6094 14.91224074155956
UTC large
Height (km)
Speed (km/s)
/
Latitude / Longitude
Inclination (degrees)
Orbital Period (minutes)
Azimuth
Elevation
Range (km)
Doppler Factor

Next 0 passes for location: London (51.5072 / 0.1276)

No passes found over London.
IRS-P5 (CARTOSAT-1)